Location: Peterborough
(44.3091°N, 78.3197°W)
Time: 19:29:54
(UTC-04:00)

Vanguard 2 Rocket - Pass Details

Date: 25 March 2023
Orbit: 554 x 3314 km, 32.9° (Epoch: 06 June)

Event Time Altitude Azimuth Distance (km) Brightness Sun altitude
Rises 01:50:50 0° 271° (W) 5,256 10.7 -43.4°
Enters shadow 01:51:45 - 269° (W) 5,068 10.6 -43.4°
Exits shadow 02:25:14 - 144° (SE) 6,766 11.1 -41.7°
Sets 02:28:03 0° 141° (SE) 7,286 11.3 -41.5°
